Atwater, CA

12:13 PM PDT on June 28, 2017 (GMT -0700)
Castle

Weather History for KMER - April, 2013

Change the Weather History Date:

Sunday, April 28, 2013

  Actual Average (KMCE) Record (KMCE)
Temperature  
Mean Temperature 70 °F -  
Max Temperature 91 °F 80 °F 95 °F (1987)
Min Temperature 50 °F 48 °F 36 °F (1955)
Cooling Degree Days 6    
Growing Degree Days 20 (Base 50)    
Moisture  
Dew Point 50 °F    
Average Humidity 63    
Maximum Humidity 100    
Minimum Humidity 21    
Precipitation  
Precipitation 0.00 in - - ()
Sea Level Pressure  
Sea Level Pressure 29.95 in    
Wind  
Wind Speed 5 mph (NNW)    
Max Wind Speed 16 mph    
Max Gust Speed 16 mph    
Visibility 10 miles    
Events      
Averages and records for this station are not official NWS values.
T = Trace of Precipitation, MM = Missing Value Source: NWS Daily Summary

Daily Weather History Graph

Daily Weather History Graph

Search for Another Location

Airport or City:

Trip Planner

Search our weather history database for the weather conditions in past years. The results will help you decide how hot, cold, wet, or windy it might be!

Date:

Astronomy

Apr. 28, 2013 Rise Set
Actual Time 6:10 AM PDT 7:49 PM PDT
Civil Twilight 5:42 AM PDT 8:17 PM PDT
Nautical Twilight 5:08 AM PDT 8:51 PM PDT
Astronomical Twilight 4:33 AM PDT 9:26 PM PDT
Moon 11:22 PM PDT 8:34 AM PDT
Length of Visible Light 14h 35m
Length of Day
13h 39m
Waning Gibbous, 88% of the Moon is Illuminated
Apr 28
Waning Gibbous
May 2
Last Quarter
May 9
New
May 17
First Quarter
May 24
Full

Hourly Weather History & Observations

Time (PDT) Temp. Heat Index Dew Point Humidity Pressure Visibility Wind Dir Wind Speed Gust Speed Precip Events Conditions
12:15 AM 60.8 °F - 51.8 °F 72% 30.02 in 10.0 mi North - - N/A   Clear
12:35 AM 60.8 °F - 50.0 °F 68% 30.01 in 10.0 mi North - - N/A   Clear
12:55 AM 62.6 °F - 48.2 °F 59% 30.01 in 10.0 mi North - - N/A   Clear
1:15 AM 59.0 °F - 48.2 °F 67% 30.01 in 10.0 mi North - - N/A   Clear
1:35 AM 57.2 °F - 48.2 °F 72% 30.01 in 10.0 mi North - - N/A   Clear
1:55 AM 55.4 °F - 48.2 °F 77% 30.01 in 10.0 mi North - - N/A   Clear
2:15 AM 55.4 °F - 48.2 °F 77% 30.01 in 10.0 mi North 5.8 mph - N/A   Clear
2:35 AM 57.2 °F - 46.4 °F 67% 30.00 in 10.0 mi North - - N/A   Clear
2:55 AM 55.4 °F - 46.4 °F 72% 30.00 in 10.0 mi North - - N/A   Clear
3:15 AM 57.2 °F - 48.2 °F 72% 30.00 in 10.0 mi Calm Calm - N/A   Clear
3:35 AM 59.0 °F - 46.4 °F 63% 30.00 in 10.0 mi Calm Calm - N/A   Clear
3:55 AM 53.6 °F - 44.6 °F 72% 30.00 in 10.0 mi Calm Calm - N/A   Clear
4:15 AM 53.6 °F - 50.0 °F 88% 30.00 in 10.0 mi WNW 4.6 mph - N/A   Clear
4:35 AM 55.4 °F - 50.0 °F 82% 30.00 in 10.0 mi NNW 5.8 mph - N/A   Clear
4:55 AM 51.8 °F - 48.2 °F 88% 30.00 in 10.0 mi NNW 4.6 mph - N/A   Clear
5:15 AM 51.8 °F - 50.0 °F 94% 29.99 in 10.0 mi North 4.6 mph - N/A   Clear
5:35 AM 50.0 °F - 48.2 °F 94% 29.99 in 10.0 mi North 5.8 mph - N/A   Clear
6:15 AM 50.0 °F - 50.0 °F 100% 29.99 in 10.0 mi North - - N/A   Clear
6:35 AM 50.0 °F - 50.0 °F 100% 30.00 in 10.0 mi Calm Calm - N/A   Clear
6:45 AM 51.8 °F - 51.8 °F 100% 30.00 in 10.0 mi Calm Calm - N/A   Clear
6:55 AM 51.8 °F - 51.8 °F 100% 30.00 in 10.0 mi Calm Calm - N/A   Clear
7:45 AM 60.8 °F - 51.8 °F 72% 30.01 in 10.0 mi North 4.6 mph - N/A   Clear
8:45 AM 69.8 °F - 48.2 °F 46% 30.01 in 10.0 mi NNW 5.8 mph - N/A   Clear
9:45 AM 73.4 °F - 51.8 °F 47% 30.01 in 10.0 mi WNW 5.8 mph - N/A   Clear
10:45 AM 78.8 °F - 51.8 °F 39% 30.01 in 10.0 mi NW 6.9 mph - N/A   Clear
11:50 AM 82.4 °F 81.4 °F 53.6 °F 37% 30.00 in 10.0 mi NW 9.2 mph - N/A   Clear
12:45 PM 84.2 °F - 51.8 °F 33% 29.98 in 10.0 mi NNW 9.2 mph 16.1 mph N/A   Clear
1:45 PM 87.8 °F - 50.0 °F 27% 29.96 in 10.0 mi North 11.5 mph - N/A   Clear
2:45 PM 91.4 °F - 46.4 °F 21% 29.93 in 10.0 mi North 11.5 mph - N/A   Clear
3:45 PM 91.4 °F - 46.4 °F 21% 29.90 in 10.0 mi North 11.5 mph - N/A   Clear
4:45 PM 91.4 °F - 48.2 °F 23% 29.87 in 10.0 mi NNW 11.5 mph 16.1 mph N/A   Clear
5:45 PM 91.4 °F - 48.2 °F 23% 29.85 in 10.0 mi NNW 16.1 mph - N/A   Clear
6:45 PM 87.8 °F - 51.8 °F 29% 29.84 in 10.0 mi NNW 16.1 mph - N/A   Clear
7:47 PM 77.0 °F - 55.4 °F 47% 29.84 in 10.0 mi NNW 16.1 mph - N/A   Clear
8:45 PM 71.6 °F - 53.6 °F 53% 29.85 in 10.0 mi NNW 11.5 mph - N/A   Clear
9:15 PM 71.6 °F - 53.6 °F 53% 29.85 in 10.0 mi North 6.9 mph - N/A   Clear
9:35 PM 68.0 °F - 53.6 °F 60% 29.86 in 10.0 mi North 6.9 mph - N/A   Clear
9:55 PM 66.2 °F - 53.6 °F 64% 29.86 in 10.0 mi North - - N/A   Clear
10:15 PM 68.0 °F - 53.6 °F 60% 29.86 in 10.0 mi North 5.8 mph - N/A   Clear
10:35 PM 66.2 °F - 53.6 °F 64% 29.86 in 10.0 mi North 6.9 mph - N/A   Clear
10:55 PM 66.2 °F - 53.6 °F 64% 29.86 in 10.0 mi North 6.9 mph - N/A   Clear
11:15 PM 66.2 °F - 53.6 °F 64% 29.86 in 10.0 mi NNE 8.1 mph - N/A   Clear
11:35 PM 66.2 °F - 53.6 °F 64% 29.86 in 10.0 mi North 6.9 mph - N/A   Clear
11:55 PM 64.4 °F - 53.6 °F 68% 29.86 in 10.0 mi NE 4.6 mph - N/A   Clear